TimeCST,TemperatureF,Dew PointF,Humidity,Sea Level PressureIn,VisibilityMPH,Wind Direction,Wind SpeedMPH,Gust SpeedMPH,PrecipitationIn,Events,Conditions,WindDirDegrees,DateUTC
12:58 AM,46.0,26.8,47,29.88,10.0,WNW,12.7,-,N/A,,Clear,290,2013-02-26 06:58:00
1:58 AM,45.0,26.6,49,29.89,10.0,WNW,10.4,-,N/A,,Clear,290,2013-02-26 07:58:00
2:58 AM,43.9,26.4,50,29.89,10.0,WNW,11.5,-,N/A,,Clear,300,2013-02-26 08:58:00
3:58 AM,42.8,26.4,52,29.90,10.0,West,10.4,-,N/A,,Clear,280,2013-02-26 09:58:00
4:58 AM,41.0,26.4,56,29.88,10.0,NNW,15.0,-,N/A,,Clear,330,2013-02-26 10:58:00
5:58 AM,40.8,25.5,55,29.91,10.0,NW,11.5,-,N/A,,Clear,310,2013-02-26 11:58:00
6:58 AM,39.0,25.5,58,29.94,10.0,WNW,8.1,-,N/A,,Clear,300,2013-02-26 12:58:00
7:58 AM,42.1,25.9,53,29.97,10.0,NW,9.2,-,N/A,,Clear,320,2013-02-26 13:58:00
8:58 AM,47.7,26.1,43,29.95,10.0,NNW,15.0,-,N/A,,Clear,330,2013-02-26 14:58:00
9:58 AM,51.8,25.3,36,29.97,10.0,NW,10.4,-,N/A,,Clear,320,2013-02-26 15:58:00
10:58 AM,55.2,25.5,32,29.96,10.0,West,9.2,-,N/A,,Clear,280,2013-02-26 16:58:00
11:58 AM,61.5,25.3,25,29.95,10.0,SSW,5.8,-,N/A,,Clear,210,2013-02-26 17:58:00
12:58 PM,63.0,24.3,23,29.91,10.0,SSW,5.8,-,N/A,,Partly Cloudy,200,2013-02-26 18:58:00
1:58 PM,64.0,25.7,23,29.89,10.0,South,11.5,-,N/A,,Clear,190,2013-02-26 19:58:00
2:55 PM,64.0,25.7,23,29.86,10.0,West,8.1,-,N/A,,Clear,260,2013-02-26 20:55:00
3:55 PM,64.4,24.4,22,29.86,10.0,SSW,12.7,-,N/A,,Scattered Clouds,210,2013-02-26 21:55:00
4:58 PM,64.4,23.0,21,29.86,10.0,SSW,11.5,-,N/A,,Clear,210,2013-02-26 22:58:00
5:58 PM,62.4,22.3,22,29.87,10.0,SSW,9.2,-,N/A,,Clear,200,2013-02-26 23:58:00
6:58 PM,58.5,25.0,28,29.87,10.0,South,5.8,-,N/A,,Clear,190,2013-02-27 00:58:00
7:58 PM,56.5,24.6,29,29.87,10.0,South,4.6,-,N/A,,Clear,180,2013-02-27 01:58:00
8:58 PM,55.8,24.8,30,29.88,10.0,South,5.8,-,N/A,,Clear,190,2013-02-27 02:58:00
9:58 PM,55.0,24.4,31,29.89,10.0,SSW,3.5,-,N/A,,Clear,210,2013-02-27 03:58:00
10:58 PM,51.4,25.2,36,29.89,10.0,SSW,5.8,-,N/A,,Clear,210,2013-02-27 04:58:00
11:58 PM,45.5,25.0,45,29.89,10.0,South,6.9,-,N/A,,Clear,170,2013-02-27 05:58:00